Regional Weather Roundup
Issued by NWS

Home | Current Version | Previous Version | Text Only | Print | Product List | Glossary Off
Versions: 1 2 3 4 5 6 7 8 9 10 11 12 13 14 15 16 17 18 19 20 21 22 23 24 25 26 27 28 29 30 31 32 33 34 35 36 37 38 39 40 41 42 43 44 45 46 47 48 49 50

000
ASUS43 KLSX 300607
RWRMO

WEATHER SUMMARY FOR MISSOURI
NATIONAL WEATHER SERVICE SPRINGFIELD MO
100 AM CDT THU OCT 30 2014

NOTE: "FAIR" INDICATES FEW OR NO CLOUDS BELOW 12,000 FEET WITH NO
       SIGNIFICANT WEATHER AND/OR OBSTRUCTIONS TO VISIBILITY.
       CURRENT SKY AND/OR WEATHER CONDITIONS ARE NOT AVAILABLE FOR
       CHILLICOTHE AND FARMINGTON.

MOZ001>031-035>038-043-044-053-054-300700-
...NORTHERN AND WESTERN MISSOURI...

CITY           SKY/WX    TMP DP  RH WIND       PRES   REMARKS
KANSAS CTY INT CLEAR     46  36  68 SE10      30.07F
6HR MIN TEMP:  44; 6HR MAX TEMP:  54;

KANSAS C DTWN  CLEAR     50  35  56 E6        30.08F
6HR MIN TEMP:  48; 6HR MAX TEMP:  58;

LEE`S SUMMIT   CLEAR     48  34  58 S7        30.09F
6HR MIN TEMP:  48; 6HR MAX TEMP:  57;

ST JOSEPH      PTCLDY    39  34  82 SE3       30.07F
6HR MIN TEMP:  38; 6HR MAX TEMP:  50;

CHILLICOTHE      N/A     41  36  82 CALM      30.12F
6HR MIN TEMP:  39; 6HR MAX TEMP:  47;

KIRKSVILLE     CLEAR     38  34  85 SE3       30.13F
6HR MIN TEMP:  35; 6HR MAX TEMP:  46;


$$
MOZ066>068-077>081-088>096-101>105-300700-
...SOUTHWEST MISSOURI...

CITY           SKY/WX    TMP DP  RH WIND       PRES   REMARKS
SPRINGFIELD    CLEAR     45  37  73 S5        30.14S
6HR MIN TEMP:  43; 6HR MAX TEMP:  58;

JOPLIN         CLEAR     48  38  68 S8        30.13F
6HR MIN TEMP:  47; 6HR MAX TEMP:  54;


$$
MOZ032>034-039>042-045>050-055>058-069>072-300700-
...CENTRAL MISSOURI...

CITY           SKY/WX    TMP DP  RH WIND       PRES   REMARKS
COLUMBIA       CLEAR     43  34  70 SE7       30.14F
6HR MIN TEMP:  42; 6HR MAX TEMP:  51;

JEFFERSON CITY CLEAR     39  35  86 E6        30.15F
6HR MIN TEMP:  37; 6HR MAX TEMP:  51;

ROLLA          CLEAR     40  31  70 CALM      30.13F
6HR MIN TEMP:  37; 6HR MAX TEMP:  47;

SEDALIA        CLEAR     42  34  73 SE5       30.14S
6HR MIN TEMP:  41; 6HR MAX TEMP:  55;

WHITEMAN AFB   CLEAR     43  34  69 SE2       30.11F
OSAGE BEACH    CLEAR     39  32  75 CALM      30.15S

$$
MOZ051-052-059>065-300700-
...EAST CENTRAL MISSOURI...

CITY           SKY/WX    TMP DP  RH WIND       PRES   REMARKS
ST LOUIS INTL  CLEAR     43  37  79 CALM      30.17S
6HR MIN TEMP:  43; 6HR MAX TEMP:  53;

SPIRIT OF STL  CLEAR     37  35  92 CALM      30.16F
6HR MIN TEMP:  36; 6HR MAX TEMP:  47;

ST CHARLES     CLEAR     40  37  89 CALM      30.16F
6HR MIN TEMP:  39; 6HR MAX TEMP:  51;


$$
MOZ072>076-082>087-097>100-106>115-300700-
...SOUTH CENTRAL AND SOUTHEAST MISSOURI...

CITY           SKY/WX    TMP DP  RH WIND       PRES   REMARKS
CAPE GIRARDEAU CLEAR     39  36  89 CALM      30.17R
6HR MIN TEMP:  37; 6HR MAX TEMP:  51;

FARMINGTON     CLEAR     36  30  80 CALM      30.17F
6HR MIN TEMP:  36; 6HR MAX TEMP:  54;

POPLAR BLUFF   CLEAR     39  34  82 CALM      30.16S
6HR MIN TEMP:  38; 6HR MAX TEMP:  54;

WEST PLAINS    CLEAR     39  34  82 CALM      30.16F
6HR MIN TEMP:  38; 6HR MAX TEMP:  55;


$$



USA.gov is the U.S. government's official web portal to all federal, state and local government web resources and services.